MCF1TR LHBP-LJLJ

Flight info

Callsign MCF1TR
Flight time 0h 39m
Altitude 32000
Route DUZLA DCT VEBAL DCT MAGAM
Aircraft B738/M-SDE2E3FGHIRWXY/LB1

Departure

Time 2026-04-22 10:37
Airport Budapest Liszt Ferenc International Airport (LHBP)

Arrival

Time 2026-04-22 11:16
Airport Ljubljana Jože Pučnik Airport (LJLJ)
Time Latitude Longitude Altitude Speed Heading
2026-04-22 09:54 47.43511 19.26478 456 ft 0 kts 222°
2026-04-22 10:27 47.43524 19.26497 456 ft 3 kts 223°
2026-04-22 10:27 47.43539 19.26524 457 ft 4 kts 263°
2026-04-22 10:27 47.43534 19.26559 457 ft 4 kts 304°
2026-04-22 10:27 47.43517 19.26590 454 ft 4 kts 314°
2026-04-22 10:28 47.43508 19.26605 455 ft 1 kts 312°
2026-04-22 10:31 47.43508 19.26604 457 ft 1 kts 312°
2026-04-22 10:31 47.43531 19.26568 457 ft 7 kts 312°
2026-04-22 10:31 47.43571 19.26502 457 ft 10 kts 312°
2026-04-22 10:31 47.43619 19.26425 457 ft 11 kts 312°
2026-04-22 10:32 47.43671 19.26330 456 ft 12 kts 295°
2026-04-22 10:32 47.43677 19.26209 456 ft 12 kts 268°
2026-04-22 10:32 47.43678 19.26091 456 ft 11 kts 287°
2026-04-22 10:32 47.43722 19.25994 456 ft 11 kts 310°
2026-04-22 10:33 47.43719 19.25893 456 ft 11 kts 228°
2026-04-22 10:33 47.43662 19.25814 456 ft 12 kts 222°
2026-04-22 10:33 47.43602 19.25733 456 ft 12 kts 222°
2026-04-22 10:33 47.43542 19.25654 456 ft 11 kts 222°
2026-04-22 10:34 47.43483 19.25574 455 ft 13 kts 222°
2026-04-22 10:34 47.43410 19.25477 456 ft 15 kts 222°
2026-04-22 10:34 47.43329 19.25368 455 ft 16 kts 222°
2026-04-22 10:34 47.43250 19.25261 456 ft 15 kts 222°
2026-04-22 10:35 47.43174 19.25158 456 ft 15 kts 222°
2026-04-22 10:35 47.43100 19.25061 456 ft 14 kts 222°
2026-04-22 10:35 47.43079 19.24974 456 ft 10 kts 306°
2026-04-22 10:35 47.43123 19.24902 455 ft 10 kts 312°
2026-04-22 10:36 47.43211 19.24763 455 ft 42 kts 313°
2026-04-22 10:36 47.43567 19.24188 451 ft 108 kts 313°
2026-04-22 10:36 47.44196 19.23172 475 ft 156 kts 313°
2026-04-22 10:36 47.44964 19.21999 1017 ft 161 kts 314°
2026-04-22 10:37 47.45712 19.20818 1870 ft 156 kts 315°
2026-04-22 10:37 47.47313 19.18181 2572 ft 194 kts 314°
2026-04-22 10:37 47.48223 19.16582 2775 ft 215 kts 306°
2026-04-22 10:38 47.48820 19.14460 3067 ft 233 kts 284°
2026-04-22 10:38 47.48857 19.11988 3375 ft 255 kts 262°
2026-04-22 10:38 47.48141 19.09545 3978 ft 267 kts 234°
2026-04-22 10:38 47.46702 19.07771 4716 ft 274 kts 209°
2026-04-22 10:39 47.44958 19.06596 5506 ft 275 kts 204°
2026-04-22 10:39 47.43190 19.05469 6269 ft 279 kts 205°
2026-04-22 10:39 47.41415 19.04303 6994 ft 283 kts 206°
2026-04-22 10:39 47.39618 19.03070 7702 ft 284 kts 208°
2026-04-22 10:40 47.37966 19.01447 8449 ft 287 kts 221°
2026-04-22 10:40 47.36439 18.99509 9190 ft 289 kts 224°
2026-04-22 10:40 47.34956 18.97528 10107 ft 290 kts 224°
2026-04-22 10:40 47.33447 18.95508 10518 ft 306 kts 223°
2026-04-22 10:41 47.31776 18.93292 10678 ft 331 kts 223°
2026-04-22 10:41 47.29998 18.90961 10867 ft 353 kts 223°
2026-04-22 10:41 47.28096 18.88495 11015 ft 375 kts 222°
2026-04-22 10:41 47.26089 18.85915 11259 ft 391 kts 221°
2026-04-22 10:42 47.24023 18.83277 11858 ft 395 kts 221°
2026-04-22 10:42 47.21929 18.80615 12441 ft 401 kts 221°
2026-04-22 10:42 47.19830 18.77953 13021 ft 407 kts 221°
2026-04-22 10:42 47.17670 18.75221 13722 ft 410 kts 220°
2026-04-22 10:43 47.15499 18.72478 14353 ft 414 kts 220°
2026-04-22 10:43 47.13336 18.69749 14968 ft 418 kts 221°
2026-04-22 10:43 47.11119 18.66955 15626 ft 421 kts 221°
2026-04-22 10:43 47.08895 18.64153 16281 ft 424 kts 221°
2026-04-22 10:44 47.06616 18.61287 16912 ft 428 kts 221°
2026-04-22 10:44 47.04341 18.58429 17524 ft 432 kts 221°
2026-04-22 10:44 47.02049 18.55552 18132 ft 436 kts 221°
2026-04-22 10:44 46.99739 18.52656 18684 ft 439 kts 221°
2026-04-22 10:45 46.97409 18.49739 19206 ft 443 kts 221°
2026-04-22 10:45 46.95090 18.46839 19721 ft 446 kts 221°
2026-04-22 10:45 46.92799 18.43978 20225 ft 449 kts 220°
2026-04-22 10:45 46.90470 18.41072 20723 ft 451 kts 220°
2026-04-22 10:46 46.88045 18.38050 21227 ft 454 kts 220°
2026-04-22 10:46 46.85661 18.35084 21702 ft 458 kts 220°
2026-04-22 10:46 46.83199 18.32023 22174 ft 461 kts 220°
2026-04-22 10:46 46.80778 18.29017 22629 ft 464 kts 220°
2026-04-22 10:47 46.78313 18.25961 23075 ft 467 kts 220°
2026-04-22 10:47 46.75827 18.22882 23501 ft 470 kts 220°
2026-04-22 10:47 46.73329 18.19792 23918 ft 472 kts 220°
2026-04-22 10:47 46.70814 18.16685 24294 ft 474 kts 220°
2026-04-22 10:48 46.68291 18.13573 24664 ft 476 kts 220°
2026-04-22 10:48 46.66582 18.11467 24899 ft 478 kts 220°
2026-04-22 10:48 46.64070 18.08369 25199 ft 481 kts 221°
2026-04-22 10:48 46.61699 18.04914 25461 ft 484 kts 231°
2026-04-22 10:49 46.59807 18.00872 25890 ft 483 kts 242°
2026-04-22 10:49 46.58369 17.96465 26190 ft 483 kts 250°
2026-04-22 10:49 46.57192 17.91889 26184 ft 484 kts 251°
2026-04-22 10:49 46.56051 17.87306 26190 ft 480 kts 251°
2026-04-22 10:50 46.54920 17.82760 26184 ft 478 kts 251°
2026-04-22 10:50 46.53764 17.78163 26197 ft 478 kts 251°
2026-04-22 10:50 46.52626 17.73702 26201 ft 479 kts 250°
2026-04-22 10:50 46.51455 17.69163 26200 ft 480 kts 250°
2026-04-22 10:51 46.50275 17.64633 26203 ft 480 kts 250°
2026-04-22 10:51 46.49089 17.60104 26204 ft 481 kts 250°
2026-04-22 10:51 46.47896 17.55561 26189 ft 481 kts 250°
2026-04-22 10:51 46.46702 17.51027 26197 ft 481 kts 250°
2026-04-22 10:52 46.45506 17.46492 26202 ft 482 kts 250°
2026-04-22 10:52 46.44309 17.41959 26207 ft 482 kts 250°
2026-04-22 10:52 46.43110 17.37426 26204 ft 481 kts 250°
2026-04-22 10:52 46.41911 17.32896 26203 ft 481 kts 250°
2026-04-22 10:53 46.40711 17.28377 26204 ft 481 kts 250°
2026-04-22 10:53 46.39508 17.23853 26204 ft 480 kts 250°
2026-04-22 10:53 46.38306 17.19340 26204 ft 480 kts 250°
2026-04-22 10:53 46.37106 17.14844 26206 ft 479 kts 250°
2026-04-22 10:54 46.35901 17.10336 26201 ft 479 kts 250°
2026-04-22 10:54 46.34698 17.05848 26190 ft 479 kts 250°
2026-04-22 10:54 46.33491 17.01352 26196 ft 479 kts 250°
2026-04-22 10:54 46.32285 16.96868 26205 ft 478 kts 250°
2026-04-22 10:55 46.31076 16.92382 26209 ft 478 kts 250°
2026-04-22 10:55 46.29867 16.87902 26206 ft 478 kts 250°
2026-04-22 10:55 46.28640 16.83366 26203 ft 478 kts 250°
2026-04-22 10:55 46.27425 16.78882 26202 ft 478 kts 250°
2026-04-22 10:56 46.26226 16.74465 26204 ft 478 kts 250°
2026-04-22 10:56 46.25008 16.69988 26206 ft 478 kts 250°
2026-04-22 10:56 46.23791 16.65522 26207 ft 478 kts 250°
2026-04-22 10:56 46.22569 16.61047 26208 ft 478 kts 250°
2026-04-22 10:57 46.21347 16.56577 26185 ft 478 kts 250°
2026-04-22 10:57 46.20123 16.52114 26147 ft 479 kts 250°
2026-04-22 10:57 46.18890 16.47617 25254 ft 484 kts 250°
2026-04-22 10:57 46.17656 16.43134 24622 ft 477 kts 250°
2026-04-22 10:58 46.16438 16.38718 23953 ft 470 kts 250°
2026-04-22 10:58 46.15217 16.34300 23171 ft 466 kts 250°
2026-04-22 10:58 46.14043 16.30056 22474 ft 460 kts 250°
2026-04-22 10:58 46.12865 16.25806 21817 ft 453 kts 250°
2026-04-22 10:59 46.11686 16.21561 21157 ft 447 kts 250°
2026-04-22 10:59 46.10551 16.17478 20514 ft 442 kts 250°
2026-04-22 10:59 46.09414 16.13396 19892 ft 437 kts 250°
2026-04-22 10:59 46.08287 16.09356 19276 ft 432 kts 250°
2026-04-22 11:00 46.07170 16.05358 18652 ft 428 kts 250°
2026-04-22 11:00 46.06062 16.01397 17979 ft 424 kts 250°
2026-04-22 11:00 46.04963 15.97476 17333 ft 420 kts 250°
2026-04-22 11:00 46.03874 15.93597 16705 ft 415 kts 251°
2026-04-22 11:01 46.02798 15.89771 16119 ft 410 kts 250°
2026-04-22 11:01 46.01733 15.85986 15515 ft 406 kts 250°
2026-04-22 11:01 46.00680 15.82251 14928 ft 402 kts 250°
2026-04-22 11:01 45.99633 15.78543 14352 ft 398 kts 251°
2026-04-22 11:02 45.98600 15.74873 13752 ft 394 kts 252°
2026-04-22 11:02 45.97898 15.71115 13150 ft 385 kts 264°
2026-04-22 11:02 45.97747 15.67322 12701 ft 374 kts 275°
2026-04-22 11:02 45.98043 15.63656 12198 ft 366 kts 284°
2026-04-22 11:03 45.98503 15.60070 11652 ft 364 kts 284°
2026-04-22 11:03 45.98962 15.56519 11407 ft 356 kts 283°
2026-04-22 11:03 45.99401 15.53056 11241 ft 351 kts 283°
2026-04-22 11:03 45.99838 15.49587 10948 ft 350 kts 283°
2026-04-22 11:04 46.00258 15.46208 10771 ft 338 kts 283°
2026-04-22 11:04 46.00659 15.42933 10610 ft 327 kts 284°
2026-04-22 11:04 46.01046 15.39766 10471 ft 316 kts 283°
2026-04-22 11:04 46.01418 15.36708 10330 ft 305 kts 284°
2026-04-22 11:05 46.01777 15.33745 10222 ft 296 kts 284°
2026-04-22 11:05 46.02124 15.30878 10084 ft 287 kts 283°
2026-04-22 11:05 46.02459 15.28116 9949 ft 280 kts 283°
2026-04-22 11:05 46.02795 15.25336 9662 ft 277 kts 284°
2026-04-22 11:06 46.03125 15.22602 9389 ft 276 kts 284°
2026-04-22 11:06 46.03454 15.19882 9100 ft 275 kts 283°
2026-04-22 11:06 46.03779 15.17175 8824 ft 275 kts 283°
2026-04-22 11:06 46.04103 15.14467 8535 ft 274 kts 283°
2026-04-22 11:07 46.04420 15.11811 8283 ft 271 kts 283°
2026-04-22 11:07 46.04742 15.09111 8010 ft 271 kts 283°
2026-04-22 11:07 46.05058 15.06453 7729 ft 271 kts 283°
2026-04-22 11:07 46.05376 15.03779 7472 ft 271 kts 283°
2026-04-22 11:08 46.05692 15.01104 7186 ft 271 kts 283°
2026-04-22 11:08 46.06009 14.98425 6924 ft 272 kts 283°
2026-04-22 11:08 46.06325 14.95743 6641 ft 272 kts 283°
2026-04-22 11:08 46.06640 14.93061 6364 ft 272 kts 283°
2026-04-22 11:09 46.06953 14.90383 6182 ft 268 kts 283°
2026-04-22 11:09 46.07254 14.87800 6122 ft 255 kts 283°
2026-04-22 11:09 46.07539 14.85340 6021 ft 242 kts 283°
2026-04-22 11:09 46.07810 14.83018 5921 ft 228 kts 283°
2026-04-22 11:10 46.08064 14.80830 5816 ft 215 kts 283°
2026-04-22 11:10 46.08303 14.78764 5709 ft 204 kts 284°
2026-04-22 11:10 46.08577 14.76807 5443 ft 199 kts 289°
2026-04-22 11:10 46.08924 14.74926 5233 ft 190 kts 290°
2026-04-22 11:11 46.09268 14.73082 5031 ft 191 kts 290°
2026-04-22 11:11 46.09618 14.71216 4812 ft 194 kts 290°
2026-04-22 11:11 46.10183 14.69514 4590 ft 185 kts 314°
2026-04-22 11:11 46.10967 14.68101 4410 ft 178 kts 311°
2026-04-22 11:12 46.11703 14.66643 4258 ft 182 kts 311°
2026-04-22 11:12 46.12455 14.65159 4079 ft 183 kts 311°
2026-04-22 11:12 46.13193 14.63712 3901 ft 177 kts 311°
2026-04-22 11:12 46.13928 14.62276 3702 ft 181 kts 311°
2026-04-22 11:13 46.14673 14.60814 3465 ft 177 kts 311°
2026-04-22 11:13 46.15382 14.59424 3190 ft 166 kts 312°
2026-04-22 11:13 46.16053 14.58111 2978 ft 159 kts 313°
2026-04-22 11:13 46.16710 14.56828 2792 ft 161 kts 313°
2026-04-22 11:14 46.17376 14.55526 2558 ft 161 kts 313°
2026-04-22 11:14 46.18032 14.54239 2354 ft 157 kts 311°
2026-04-22 11:14 46.18683 14.52970 2131 ft 157 kts 312°
2026-04-22 11:14 46.19333 14.51700 1940 ft 160 kts 309°
2026-04-22 11:15 46.20012 14.50370 1708 ft 167 kts 309°
2026-04-22 11:15 46.20704 14.49028 1526 ft 165 kts 306°
2026-04-22 11:15 46.21382 14.47690 1300 ft 163 kts 305°
2026-04-22 11:15 46.22031 14.46421 1229 ft 139 kts 307°
2026-04-22 11:16 46.22444 14.45621 1244 ft 47 kts 307°
2026-04-22 11:16 46.22620 14.45398 1252 ft 24 kts 332°
2026-04-22 11:16 46.22733 14.45336 1262 ft 11 kts 348°
2026-04-22 11:16 46.22797 14.45318 1257 ft 8 kts 349°
2026-04-22 11:17 46.22854 14.45325 1266 ft 8 kts 28°
2026-04-22 11:17 46.22901 14.45375 1263 ft 9 kts 36°
2026-04-22 11:17 46.22954 14.45400 1257 ft 9 kts 329°
2026-04-22 11:17 46.22978 14.45378 1257 ft 4 kts
2026-04-22 11:18 46.23016 14.45408 1259 ft 6 kts 36°
2026-04-22 11:18 46.23025 14.45418 1263 ft 1 kts 36°
2026-04-22 11:18 46.23028 14.45421 1261 ft 0 kts 36°